IRIDIUM 33 DEB, 34765

Orbit data source: Space-Track

IRIDIUM 33 DEB, 34765 is space debris in LEO originally from a launch on Sun, 14 Sep 1997 UTC launched from the Tyuratam Missile And Space Complex (TTMTR). The debris from Iridium 33, an American commercial communications satellite, has been tracked extensively since its accidental collision with the defunct Russian satellite Cosmos 2251 in 2009. This event, occurring at high speed in low Earth orbit (LEO), generated thousands of pieces of space debris, significantly increasing the risk of further collisions. The Iridium 33 debris cloud has impacted space traffic management and orbital debris mitigation strategies, making it a subject of ongoing study in space situational awareness.

Loading next visibility...
Identifier
34765, 1997-051LJ
Orbit
LEO
Country
Flag of USUS
Related business
Manufacturer
Unknown
Mission
Spacecraft
Bus & Motor
Unknown
Mass
Unknown
Launch date (UTC)
1997-09-14 (29 years ago)
Launch vehicle
Unknown
Launch site
Tyuratam Missile And Space Complex (TTMTR)
Object type
Payload
Rocket body
Debris
Shape & HBR
Unknown shape, 0.1 m
Radar Cross Section
Small (<0.1 m²)

Expand to show TLE details & history
Last TLE update: 10 hours ago

TLE from 10 hours ago
0 IRIDIUM 33 DEB
1 34765U 97051LJ  26121.33097714  .00001206  00000-0  36956-3 0  9994
2 34765  86.3387 332.8694 0018209 114.8482  59.5830 14.40873666896238
Epoch: 2026-05-01T07:56Z
TLE epoch observation values (Epoch: 2026-05-01T07:56:36.424Z)
Latitude
5.29107°
Longitude
174.11514°
Altitude
751.581 km
Speed
7.483 km/s
True Right ascension
10h 10m 07s
True Declination
5° 15' 34"
Sunlit
Object was in daylight at epoch
Visualization orbit readout
Latitude
Unknown
Longitude
Unknown
Altitude
Unknown
Speed
Unknown
Apparent Right ascension
Unknown
Apparent Declination
Unknown
Sunlit
N/A
Visualization observer readout
Local Sidereal Time
01:14:18
Azimuth
Unknown
Elevation
Unknown
Doppler factor
Unknown
Orbital elements
Apogee altitude
765.554 km
Perigee altitude
739.585 km
Semi-major axis
7,130.707 km
Eccentricity
0.00182
Inclination
86.3387°
RAAN
332.8694°
Arg. of periapsis
114.8482°
True anomaly
59.76315°
Mean anomaly
59.583°
Eccentric anomaly
59.67305°
Mean motion
3.60449 °/min
Orbital period
99.88 mins
BSTAR
0.00036956
Loading maneuver chart data...
Computing Atmospheric mass density...
Loading historical data...
Loading historical data...
Loading historical data...
Loading historical data...
Loading historical data...
Loading historical data...
Loading historical data...

Documentation

Showing up to 5 results
|